GW1370 Weather Reports


time (UTC)temp
F
wind
direction
speed
knots
gust
knots
rain 1hr
in
rain 24hr
in
rain mn
in
humidity
%
barometer
mb
20260507223102 52 106 6.1 7.8 0.00 0.00 0.00 83 1016.0
20260507221549 53 98 7.0 8.7 0.00 0.00 0.00 79 1016.1
20260507220042 53 89 7.0 7.8 0.00 0.00 0.00 78 1016.0
20260507214547 53 101 5.2 7.8 0.00 0.00 0.00 80 1016.1
20260507213045 53 108 7.0 8.7 0.00 0.00 0.00 81 1016.2
20260507211556 52 105 7.8 9.6 0.00 0.00 0.00 81 1016.1
20260507210104 52 98 7.0 10.4 0.00 0.00 0.00 83 1016.1
20260507204549 53 88 8.7 11.3 0.00 0.00 0.00 83 1016.0
20260507203043 53 87 8.7 10.4 0.00 0.00 0.00 82 1015.9
20260507201544 53 92 8.7 10.4 0.00 0.00 0.00 82 1015.9
20260507200052 53 86 7.8 10.4 0.00 0.00 0.00 81 1015.8
20260507194550 52 75 7.8 10.4 0.00 0.00 0.00 81 1015.7
20260507193041 52 76 7.8 9.6 0.00 0.00 0.00 81 1015.8
20260507191548 52 84 7.0 9.6 0.00 0.00 0.00 81 1015.6
20260507190050 52 83 7.0 10.4 0.00 0.00 0.00 80 1015.5
20260507184548 52 77 6.1 10.4 0.00 0.00 0.00 80 1015.5
20260507183110 52 86 9.6 13.0 0.00 0.00 0.00 80 1015.5
20260507181551 52 76 9.6 10.4 0.00 0.00 0.00 80 1015.5
20260507180042 52 77 9.6 12.2 0.00 0.00 0.00 80 1015.5
20260507174554 52 88 11.3 14.8 0.00 0.00 0.00 80 1015.4
20260507173050 52 91 12.2 13.9 0.00 0.00 0.00 80 1015.4
20260507171548 52 84 10.4 14.8 0.00 0.00 0.00 79 1015.4
20260507170046 52 86 12.2 14.8 0.00 0.00 0.00 78 1015.4
20260507164602 52 86 11.3 13.9 0.00 0.00 0.00 77 1015.4
20260507163054 52 83 13.0 15.6 0.00 0.00 0.00 78 1015.4
20260507161551 52 85 13.0 15.6 0.00 0.00 0.00 79 1015.4
20260507160048 52 85 11.3 13.9 0.00 0.00 0.00 77 1015.6
20260507154548 52 86 11.3 13.0 0.00 0.00 0.00 78 1015.5
20260507153056 52 91 11.3 13.9 0.00 0.00 0.00 79 1015.5
20260507151540 52 89 10.4 13.0 0.00 0.00 0.00 78 1015.6
20260507150048 52 89 10.4 13.0 0.00 0.00 0.00 78 1015.6
20260507144548 52 93 11.3 13.0 0.00 0.02 0.00 78 1015.6
20260507143047 52 84 11.3 13.0 0.00 0.02 0.00 77 1015.6
20260507141545 52 89 11.3 13.0 0.00 0.02 0.00 76 1015.7
20260507140044 52 94 10.4 13.0 0.00 0.02 0.00 76 1015.8
20260507134550 52 108 11.3 13.9 0.00 0.02 0.00 77 1015.7
20260507133052 52 96 12.2 13.9 0.00 0.02 0.00 75 1015.7
20260507131548 52 94 12.2 13.9 0.00 0.02 0.00 75 1015.6
20260507130054 52 98 12.2 13.9 0.00 0.02 0.00 75 1015.8
20260507124559 52 96 11.3 12.2 0.00 0.02 0.00 73 1015.9
20260507123051 52 91 11.3 13.0 0.00 0.02 0.00 74 1015.9
20260507121551 52 98 11.3 13.0 0.00 0.02 0.00 75 1015.7
20260507120053 52 98 11.3 13.9 0.00 0.02 0.00 77 1015.8
20260507114605 52 92 11.3 13.0 0.00 0.02 0.00 76 1015.7
20260507113104 52 100 11.3 13.9 0.00 0.02 0.00 76 1015.7
20260507111547 52 98 12.2 13.9 0.00 0.02 0.00 77 1015.8
20260507110043 52 106 12.2 16.5 0.00 0.02 0.00 77 1015.8
20260507104546 52 102 13.0 14.8 0.00 0.02 0.00 76 1016.0
20260507103049 52 103 10.4 13.0 0.00 0.02 0.00 77 1016.0
20260507101538 52 80 10.4 13.0 0.00 0.02 0.00 77 1015.9
20260507100044 52 105 8.7 11.3 0.00 0.02 0.00 77 1015.9
20260507094544 52 100 6.1 8.7 0.00 0.02 0.00 75 1015.9
20260507093042 51 102 7.0 9.6 0.00 0.02 0.00 76 1015.9
20260507091541 52 98 7.8 9.6 0.00 0.02 0.00 77 1015.8
20260507090044 51 87 5.2 8.7 0.00 0.02 0.00 77 1015.7
20260507084547 51 72 6.1 7.8 0.00 0.02 0.00 77 1015.7
20260507083044 51 51 3.5 7.8 0.00 0.02 0.00 78 1015.6
20260507081547 51 56 6.1 8.7 0.00 0.02 0.00 78 1015.6
20260507080049 51 63 4.3 9.6 0.00 0.02 0.00 80 1015.6
20260507074550 50 72 4.3 7.0 0.00 0.02 0.00 82 1015.7
20260507073043 50 27 3.5 6.1 0.00 0.02 0.00 82 1015.6
20260507071542 49 20 3.5 7.8 0.00 0.02 0.00 83 1015.7
20260507070041 49 30 4.3 7.0 0.00 0.02 0.00 83 1015.6
20260507064551 49 40 4.3 7.0 0.00 0.02 0.00 84 1015.5
20260507063045 48 15 4.3 7.8 0.00 0.02 0.00 84 1015.4
20260507061554 48 13 3.5 7.0 0.00 0.02 0.00 85 1015.3
20260507060058 48 22 2.6 7.0 0.00 0.02 0.00 86 1015.1
20260507054543 47 30 2.6 7.0 0.00 0.02 0.00 86 1015.0
20260507053047 47 25 3.5 6.1 0.00 0.02 0.00 86 1014.9
20260507051549 47 18 3.5 7.0 0.00 0.02 0.00 86 1014.9
20260507050045 47 347 2.6 6.1 0.00 0.02 0.00 86 1014.9
20260507044604 47 360 2.6 5.2 0.00 0.02 0.00 86 1014.7
20260507043059 47 359 2.6 4.3 0.00 0.02 0.00 86 1014.6
20260507041543 47 4 2.6 6.1 0.00 0.02 0.00 86 1014.6
20260507040051 47 1 2.6 6.1 0.00 0.02 0.00 86 1014.5
20260507034544 47 3 2.6 5.2 0.00 0.02 0.00 86 1014.5
20260507033044 47 13 1.7 5.2 0.00 0.02 0.00 85 1014.5
20260507031548 47 33 3.5 7.0 0.00 0.02 0.00 85 1014.5
20260507030042 47 352 0.9 3.5 0.00 0.02 0.00 84 1014.5
20260507024553 47 3 1.7 4.3 0.00 0.02 0.00 84 1014.5
20260507023104 48 5 0.9 4.3 0.00 0.02 0.00 84 1014.5
20260507021551 48 7 1.7 6.1 0.00 0.02 0.00 83 1014.4
20260507020058 48 28 3.5 6.1 0.00 0.02 0.00 83 1014.3
20260507014546 48 25 3.5 6.1 0.00 0.02 0.00 84 1014.3
20260507013042 48 38 3.5 6.1 0.00 0.02 0.00 84 1014.3
20260507011548 48 22 3.5 8.7 0.00 0.02 0.00 84 1014.3
20260507010047 48 13 3.5 7.0 0.00 0.02 0.00 83 1014.4
20260507004544 48 21 3.5 7.0 0.00 0.02 0.00 83 1014.3
20260507003056 48 45 3.5 7.8 0.00 0.02 0.00 83 1014.2
20260507001610 48 23 4.3 7.0 0.00 0.02 0.00 83 1014.3
20260507000051 48 1 1.7 4.3 0.00 0.02 0.00 83 1014.4
20260506234554 49 7 1.7 4.3 0.00 0.02 0.00 83 1014.3
20260506233047 49 5 1.7 4.3 0.00 0.02 0.00 83 1014.3
20260506231554 49 340 0.9 4.3 0.00 0.02 0.00 83 1014.4
20260506230055 49 13 1.7 4.3 0.00 0.02 0.00 83 1014.3
20260506224543 49 27 2.6 4.3 0.00 0.02 0.02 83 1014.3